Wind_Speed
10 8 6 5 7 10 15 18 19 20 22 25 29 32 35 38 41 39 34 26 20 15 13 12 13 16 18 20 23 23 24 23 23 24 26 25 28 30 33 33 30 34 28 31 29
12 10 7 7 9 12 15 18 20 21 23 26 29 32 33 35 39 40 37 31 25 20 15 14 15 18 21 23 25 27 28 26 25 28 28 30 31 33 39 36 34 34 33 35 33
13 11 9 9 10 13 15 18 20 22 25 26 28 31 32 34 36 38 37 33 28 25 24 22 20 20 20 22 24 26 26 27 28 29 30 32 35 37 40 40 37 35 37 35 34
14 12 10 11 12 13 15 17 18 22 25 28 30 31 34 36 35 36 37 37 30 28 26 25 24 25 25 24 25 26 27 28 30 31 31 33 38 41 42 40 36 36 37 37 36
16 13 12 11 12 14 15 16 17 21 25 27 30 31 32 32 34 36 38 37 33 29 31 31 30 28 27 26 26 29 29 29 30 32 34 36 38 45 45 40 38 39 39 40 41
18 15 15 14 13 15 16 17 19 22 26 28 29 30 31 32 32 33 35 36 34 32 31 31 33 33 31 30 30 30 31 29 30 33 33 38 43 47 48 39 38 40 42 42 43
21 18 18 17 16 17 17 18 20 22 25 28 29 29 31 33 31 31 32 35 34 34 33 33 32 32 32 31 29 31 33 31 32 36 38 40 43 46 49 42 41 42 42 44 45
24 22 21 20 19 19 20 20 22 23 25 27 30 30 31 33 30 30 33 35 35 35 34 33 30 30 31 31 31 32 33 32 33 30 32 38 43 49 50 46 46 45 46 49 52
27 25 24 24 23 22 21 23 23 25 28 29 32 32 33 33 31 31 32 35 37 36 36 33 32 32 32 32 35 35 34 33 34 37 35 39 45 48 52 48 46 47 52 54 56
30 28 28 27 26 25 24 25 26 27 30 31 33 36 33 33 35 33 34 35 37 38 38 37 36 37 37 36 37 34 35 34 36 40 41 41 46 50 51 52 54 55 57 59 60
34 32 31 30 29 29 28 28 30 30 32 34 36 38 35 36 35 36 36 36 38 40 39 37 39 42 43 43 43 44 43 38 36 41 45 47 51 53 55 53 56 57 61 58 61
39 35 33 32 32 32 31 32 34 36 31 32 35 37 37 38 36 39 38 39 39 41 41 39 42 42 43 45 45 45 46 42 43 45 49 52 54 58 59 58 60 59 59 62 64
42 38 36 35 35 35 35 35 37 40 43 34 36 37 39 39 40 39 40 41 42 43 43 43 42 45 45 46 48 46 46 45 46 48 52 56 58 61 60 63 63 64 64 67 68
45 42 39 38 38 38 39 39 40 41 48 44 41 40 41 43 42 42 40 43 44 45 44 43 42 48 50 48 51 51 48 49 51 54 59 60 65 64 67 67 69 66 67 67 67
49 47 44 42 42 43 44 42 42 43 52 48 46 45 47 47 44 42 43 44 45 46 50 49 50 52 53 52 56 56 55 57 55 57 62 58 68 69 71 72 75 69 68 66 71
53 50 48 47 46 48 48 47 47 48 50 50 49 49 49 48 48 46 45 47 49 49 49 53 54 53 56 56 58 58 61 62 59 60 64 66 69 73 74 73 75 70 68 70 71
57 56 54 52 51 53 52 52 54 53 49 54 50 51 52 49 50 47 49 50 49 53 54 58 59 57 60 60 65 64 65 63 61 63 64 66 70 70 72 71 71 70 67 70 69
60 59 58 56 55 56 58 59 61 55 51 55 53 54 51 50 51 51 54 55 52 51 54 57 60 62 64 63 68 66 67 62 63 64 66 65 71 75 74 73 69 65 68 71 72
62 62 61 60 58 60 65 70 63 57 57 57 54 54 53 51 53 52 55 56 55 55 56 59 61 66 67 68 69 72 68 63 65 74 74 74 72 79 75 73 71 69 72 70 74
66 67 66 63 64 67 74 74 64 57 58 58 55 54 53 52 56 55 58 59 59 58 60 62 66 69 72 71 75 69 69 68 72 74 74 74 72 76 70 72 72 71 69 71 73
72 73 71 68 70 74 78 73 63 59 61 59 56 55 52 54 56 58 62 61 61 61 61 66 71 73 75 78 74 66 69 72 74 73 73 75 77 71 68 70 71 68 68 71 71
74 75 73 71 72 76 75 67 64 61 62 63 57 54 56 56 58 61 61 61 62 64 68 71 72 78 76 71 67 69 73 71 73 71 75 71 74 67 65 67 69 70 65 71 71
75 72 74 76 75 71 71 68 64 65 64 67 60 58 60 58 61 62 61 59 62 66 71 71 78 80 73 63 72 71 72 71 72 74 70 68 73 61 64 66 70 66 66 69 69
80 80 80 77 77 74 72 70 70 70 70 67 62 64 63 60 63 67 62 63 65 69 74 74 80 76 67 64 70 68 68 69 67 71 62 72 63 63 62 67 67 65 67 67 69
86 85 84 85 79 77 76 74 75 76 72 66 68 64 61 66 68 67 65 68 71 80 77 79 84 74 69 70 70 69 72 69 69 65 67 61 67 56 63 67 68 66 66 66 69
87 85 85 83 84 82 78 79 77 73 72 74 71 65 66 72 68 68 72 72 76 83 84 82 73 72 70 72 72 71 67 65 64 62 62 61 58 60 63 66 66 64 65 65 71
88 88 86 84 83 84 82 78 77 75 76 70 69 73 74 74 75 77 79 76 82 80 72 71 74 77 73 74 70 75 65 63 57 56 58 59 56 59 64 65 62 63 64 68 69
Wind_Direction
219 236 243 279 310 331 340 344 348 352 355 357 356 356 358 3 11 9 7 4 1 357 332 312 302 294 295 297 298 298 302 310 311 314 320 321 318 319 314 323 325 329 334 324 326
227 233 249 278 306 321 334 339 343 350 352 351 350 351 354 360 5 8 8 1 357 349 346 331 310 302 301 299 297 298 303 309 309 310 316 317 314 313 312 317 324 326 322 322 322
229 234 252 279 302 317 328 334 338 345 347 346 348 350 352 355 0 5 5 359 351 349 341 330 318 310 303 300 298 300 302 303 306 308 312 312 313 310 310 312 325 319 318 316 317
227 238 256 277 298 312 322 330 335 341 344 344 349 351 351 352 360 3 3 0 350 341 341 337 330 321 313 306 303 301 302 303 303 305 308 308 308 308 306 313 319 314 310 311 311
234 243 257 274 293 306 317 323 333 339 339 341 345 348 349 351 354 359 359 355 351 345 339 338 334 328 320 313 308 303 300 301 302 305 305 306 306 306 306 316 317 310 307 310 312
239 249 260 271 285 297 309 314 323 332 334 338 341 344 345 345 349 354 353 350 346 339 336 336 334 333 327 320 313 307 304 304 303 303 304 305 304 304 311 318 310 308 308 311 310
244 251 262 270 279 288 296 305 313 323 327 332 335 339 339 340 341 346 346 344 344 337 330 331 333 332 327 326 317 309 306 302 299 300 303 302 302 306 309 312 310 307 307 305 307
244 251 261 267 273 280 288 298 305 313 318 324 328 332 335 335 334 337 336 337 337 339 333 328 332 333 334 330 319 315 312 310 304 299 306 305 303 307 306 311 309 308 310 309 310
244 252 258 264 270 276 284 292 298 306 310 317 322 324 329 331 328 328 329 330 331 333 336 334 334 334 332 337 328 321 317 316 311 309 310 306 305 304 307 312 309 308 310 309 310
245 251 258 263 269 275 281 286 292 299 303 310 315 317 323 325 326 325 324 326 328 328 332 332 333 336 333 332 330 323 316 316 311 307 309 311 309 308 311 315 314 310 309 308 306
247 251 258 264 269 274 279 284 288 291 298 304 311 312 317 319 323 323 319 320 324 324 326 330 334 332 334 333 329 326 318 311 308 306 308 310 311 310 314 314 311 310 309 308 307
251 255 260 266 272 276 279 281 284 289 285 291 301 306 309 312 316 318 317 315 319 322 322 326 329 332 332 329 326 322 322 316 309 309 308 307 309 310 313 313 312 311 311 309 313
258 259 262 267 271 275 278 281 284 288 290 291 297 302 303 307 313 314 313 313 316 322 322 323 326 325 325 327 325 323 319 313 309 307 307 306 307 310 313 314 318 314 311 313 315
261 263 264 267 270 274 277 280 283 287 288 294 298 300 302 306 310 311 312 312 314 316 318 319 323 324 323 325 324 325 324 316 312 309 308 311 309 313 315 317 316 314 313 314 314
260 263 267 269 273 275 278 280 282 284 286 296 299 301 303 304 307 308 310 309 309 312 316 319 320 323 323 322 323 322 320 317 315 311 307 316 310 312 316 320 317 317 315 314 315
263 266 267 269 271 273 276 278 280 279 283 291 297 299 300 302 305 306 308 307 307 308 309 310 312 316 319 318 319 319 322 317 313 311 308 310 314 317 319 319 317 315 315 313 315
260 263 265 268 270 272 274 276 277 276 288 291 295 295 296 299 302 302 303 304 307 309 310 310 311 314 316 319 322 320 322 317 314 316 313 313 311 318 319 319 314 316 316 314 315
262 264 266 268 270 271 273 273 273 281 286 289 292 291 293 296 297 301 302 302 305 307 305 306 307 312 315 317 318 321 316 316 312 316 315 314 315 315 318 318 313 314 313 315 315
260 263 264 266 268 270 271 272 276 285 285 286 285 288 291 294 294 297 299 300 306 307 307 307 307 310 313 314 315 317 316 316 313 315 314 315 316 311 320 315 313 312 314 314 312
259 260 262 264 266 268 269 272 279 281 281 281 285 287 290 294 295 298 297 301 305 307 308 308 307 308 311 313 313 313 313 315 314 312 314 313 313 313 317 313 312 311 314 312 310
258 260 260 263 265 266 269 275 277 278 280 280 283 284 290 291 293 296 296 300 301 304 307 307 306 308 309 308 308 307 309 311 309 311 310 312 314 317 313 311 309 311 311 308 309
260 261 263 263 264 266 270 274 276 278 278 279 280 283 285 288 291 292 295 297 299 301 303 303 304 308 309 305 307 306 307 308 306 309 305 311 311 315 309 307 306 309 309 306 310
262 263 263 263 263 266 271 274 275 277 278 278 281 285 284 287 289 289 289 293 296 298 300 301 303 307 306 304 309 307 305 305 305 306 311 304 314 310 308 305 305 309 307 309 311
257 261 262 264 266 267 270 272 273 274 273 278 282 282 286 289 286 287 291 293 294 294 295 293 299 302 301 300 302 304 303 302 303 302 308 307 308 309 307 303 308 308 308 310 311
256 258 260 263 265 267 267 270 270 272 275 278 279 282 284 283 283 289 288 287 290 294 295 294 299 296 297 299 298 300 302 303 303 305 300 312 304 310 300 305 306 308 309 310 311
257 259 262 263 264 266 267 267 270 275 278 277 278 282 282 281 285 285 286 287 288 293 297 298 298 298 295 297 298 299 302 303 302 305 303 302 308 299 303 303 305 307 307 310 312
258 259 260 263 264 265 266 271 272 272 271 278 279 278 280 282 280 282 284 284 288 293 297 295 297 301 301 299 297 296 304 302 302 302 299 300 303 299 301 302 305 305 308 310 313
Height
5896 5896 5896 5897 5896 5895 5894 5892 5891 5889 5887 5884 5881 5877 5874 5871 5867 5863 5860 5858 5855 5853 5852 5851 5850 5848 5847 5846 5844 5842 5840 5841 5838 5836 5834 5831 5827 5825 5821 5821 5820 5819 5816 5812 5810
5895 5895 5895 5895 5895 5894 5892 5891 5889 5888 5885 5882 5880 5877 5874 5870 5867 5864 5861 5858 5855 5852 5850 5849 5847 5846 5844 5843 5841 5838 5837 5835 5832 5829 5829 5826 5823 5819 5815 5814 5815 5812 5810 5806 5804
5893 5893 5893 5893 5893 5892 5891 5889 5887 5886 5884 5881 5879 5876 5873 5870 5867 5863 5860 5858 5855 5852 5849 5847 5845 5843 5841 5839 5837 5834 5832 5830 5827 5825 5824 5822 5818 5814 5810 5808 5810 5805 5801 5797 5794
5891 5891 5890 5891 5890 5890 5889 5887 5885 5884 5882 5879 5876 5874 5871 5867 5866 5862 5859 5857 5854 5850 5847 5844 5842 5840 5838 5836 5833 5831 5827 5825 5823 5820 5818 5815 5811 5807 5803 5805 5804 5797 5792 5788 5784
5888 5888 5888 5887 5887 5887 5886 5884 5883 5882 5880 5877 5874 5872 5870 5867 5864 5860 5857 5855 5851 5848 5845 5842 5839 5836 5833 5831 5829 5825 5823 5820 5816 5814 5811 5808 5804 5800 5796 5799 5795 5789 5784 5780 5777
5884 5885 5885 5884 5884 5883 5882 5881 5880 5878 5877 5875 5872 5870 5867 5866 5862 5859 5856 5853 5849 5846 5842 5839 5835 5832 5829 5826 5823 5820 5817 5816 5813 5808 5805 5801 5797 5789 5786 5792 5786 5780 5776 5772 5769
5880 5880 5881 5881 5880 5880 5879 5877 5876 5875 5874 5871 5870 5867 5865 5863 5859 5856 5854 5851 5847 5843 5839 5836 5832 5828 5824 5821 5818 5813 5810 5811 5808 5802 5799 5793 5788 5784 5778 5781 5777 5771 5767 5762 5759
5875 5875 5875 5875 5875 5875 5874 5873 5872 5870 5869 5867 5865 5865 5862 5860 5856 5853 5850 5847 5844 5840 5836 5832 5828 5824 5820 5817 5812 5809 5806 5804 5801 5799 5795 5788 5781 5775 5768 5771 5767 5763 5759 5752 5747
5868 5869 5869 5869 5869 5870 5869 5868 5866 5865 5864 5862 5861 5859 5858 5855 5852 5849 5847 5843 5839 5835 5832 5828 5823 5819 5815 5812 5805 5801 5798 5796 5792 5786 5785 5781 5774 5765 5760 5763 5759 5753 5747 5741 5736
5862 5863 5863 5863 5863 5864 5863 5862 5860 5860 5858 5856 5856 5855 5854 5851 5847 5843 5840 5838 5834 5830 5828 5823 5818 5814 5808 5805 5801 5797 5792 5789 5783 5778 5774 5772 5765 5759 5755 5750 5745 5740 5735 5729 5722
5854 5855 5856 5856 5856 5857 5857 5856 5856 5855 5852 5849 5849 5848 5846 5844 5842 5838 5834 5832 5828 5823 5820 5816 5813 5806 5801 5797 5792 5787 5782 5779 5777 5772 5767 5762 5756 5749 5745 5741 5734 5729 5723 5716 5710
5846 5847 5849 5850 5849 5849 5849 5848 5846 5845 5849 5846 5844 5842 5840 5838 5836 5832 5829 5826 5822 5818 5812 5810 5802 5800 5797 5791 5786 5780 5774 5770 5766 5761 5754 5749 5745 5737 5732 5729 5724 5717 5708 5700 5693
5839 5840 5842 5842 5842 5842 5841 5840 5837 5835 5833 5840 5839 5837 5834 5831 5828 5825 5822 5817 5814 5811 5806 5802 5799 5793 5790 5785 5778 5775 5768 5762 5757 5751 5745 5738 5734 5728 5722 5715 5710 5704 5696 5687 5681
5832 5833 5834 5834 5835 5833 5833 5831 5829 5826 5821 5828 5829 5828 5825 5822 5820 5816 5813 5810 5805 5800 5797 5793 5793 5787 5782 5778 5770 5765 5760 5753 5748 5741 5733 5728 5717 5716 5709 5704 5698 5691 5682 5675 5666
5824 5824 5825 5825 5826 5825 5825 5823 5821 5818 5810 5817 5818 5816 5812 5812 5810 5809 5804 5800 5797 5792 5784 5782 5778 5775 5771 5767 5761 5755 5749 5742 5736 5729 5721 5720 5704 5701 5695 5690 5681 5676 5668 5661 5651
5814 5815 5815 5816 5816 5815 5814 5813 5812 5808 5805 5809 5808 5805 5802 5800 5799 5796 5794 5792 5786 5783 5781 5775 5770 5768 5762 5757 5751 5745 5739 5731 5725 5718 5709 5702 5691 5685 5678 5674 5665 5659 5654 5646 5637
5803 5803 5804 5805 5805 5803 5802 5801 5800 5798 5804 5798 5800 5795 5792 5790 5789 5787 5783 5781 5779 5772 5768 5761 5757 5755 5750 5744 5737 5732 5727 5718 5712 5705 5696 5689 5681 5677 5666 5658 5646 5643 5637 5629 5622
5790 5790 5792 5794 5793 5792 5789 5787 5783 5792 5794 5789 5789 5784 5782 5781 5778 5775 5772 5769 5769 5766 5758 5753 5746 5741 5738 5734 5727 5721 5715 5711 5697 5693 5688 5681 5670 5662 5656 5650 5640 5634 5626 5617 5606
5778 5778 5780 5781 5781 5779 5775 5767 5776 5784 5782 5779 5778 5774 5772 5772 5767 5766 5761 5758 5757 5754 5748 5741 5737 5730 5726 5721 5715 5708 5702 5697 5686 5677 5671 5667 5664 5642 5646 5634 5627 5620 5612 5603 5593
5763 5763 5766 5769 5767 5765 5756 5756 5769 5774 5769 5765 5764 5763 5761 5759 5753 5752 5747 5747 5743 5740 5734 5728 5721 5718 5713 5709 5703 5696 5688 5683 5674 5661 5655 5651 5644 5633 5629 5619 5613 5607 5599 5588 5580
5746 5748 5752 5755 5753 5746 5740 5748 5758 5761 5752 5752 5754 5751 5753 5749 5744 5741 5734 5733 5729 5728 5722 5713 5710 5705 5700 5694 5687 5683 5676 5672 5661 5652 5640 5634 5632 5626 5616 5608 5599 5594 5587 5575 5567
5731 5731 5736 5739 5737 5729 5731 5742 5745 5744 5741 5739 5742 5743 5739 5736 5734 5728 5724 5719 5720 5716 5710 5705 5696 5691 5687 5678 5672 5668 5664 5657 5646 5641 5627 5623 5619 5616 5605 5592 5586 5584 5575 5562 5552
5713 5718 5716 5714 5716 5723 5723 5726 5729 5728 5727 5722 5729 5729 5725 5726 5719 5716 5712 5712 5707 5702 5695 5692 5682 5674 5671 5666 5658 5653 5651 5643 5634 5625 5623 5606 5605 5598 5592 5581 5573 5569 5559 5549 5539
5696 5697 5696 5698 5702 5708 5712 5714 5712 5711 5709 5713 5717 5712 5711 5711 5704 5698 5699 5695 5690 5687 5683 5677 5672 5669 5663 5657 5645 5643 5639 5633 5624 5610 5611 5597 5594 5585 5574 5564 5558 5553 5544 5535 5525
5675 5677 5677 5676 5685 5693 5695 5697 5693 5693 5697 5704 5698 5699 5698 5691 5686 5685 5683 5676 5674 5671 5666 5659 5654 5648 5648 5642 5636 5630 5620 5618 5609 5604 5590 5596 5572 5579 5561 5553 5546 5539 5530 5519 5508
5656 5661 5665 5666 5666 5669 5676 5676 5678 5684 5685 5680 5680 5685 5680 5673 5674 5670 5664 5661 5658 5654 5646 5640 5633 5629 5629 5624 5618 5614 5610 5605 5597 5590 5577 5572 5571 5551 5550 5540 5535 5525 5516 5506 5495
5643 5643 5643 5651 5649 5649 5653 5662 5665 5664 5663 5671 5667 5660 5659 5660 5655 5653 5649 5646 5639 5637 5632 5625 5621 5614 5606 5603 5600 5594 5600 5590 5585 5576 5564 5557 5555 5545 5536 5529 5521 5510 5502 5492 5482